Hourly Data Report for August 20, 2016

TORONTO CITY
ONTARIO

43°40'00.000" N
79°24'00.000" W
112.50 m
6158355
71508
XTO

Download Data

Hourly Data (August 2016)
Hourly Data Report for August 20, 2016
TIME
LST
Temp Definition
°C
Dew Point Definition
°C
Rel Hum Definition
%
Precip. Amount Definition
mm

Wind Dir Definition
10's deg

Wind Spd Definition
km/h
Visibility Definition
km
Stn Press Definition
kPa
Hmdx Definition


Wind Chill Definition


Weather Definition


00:00 23.5 18.9 75 0.0 LegendMM LegendMM   99.78 30   LegendNANA
01:00 24.0 19.2 75 0.0 LegendMM LegendMM   99.70 31   LegendNANA
02:00 23.2 19.6 80 0.0 LegendMM LegendMM   99.76 30   LegendNANA
03:00 22.0 19.8 88 0.4 LegendMM LegendMM   99.73 29   LegendNANA
04:00 21.2 19.4 90 2.0 LegendMM LegendMM   99.63 28   LegendNANA
05:00 21.0 19.7 92 0.0 LegendMM LegendMM   99.65 28   LegendNANA
06:00 21.0 19.8 93 0.0 LegendMM LegendMM   99.69 28   LegendNANA
07:00 21.9 20.5 92 0.0 LegendMM LegendMM   99.69 30   LegendNANA
08:00 22.9 20.3 85 0.0 LegendMM LegendMM   99.67 31   LegendNANA
09:00 23.5 20.2 82 0.0 LegendMM LegendMM   99.65 31   LegendNANA
10:00 25.1 20.5 76 0.0 LegendMM LegendMM   99.63 33   LegendNANA
11:00 26.9 20.7 69 0.0 LegendMM LegendMM   99.60 35   LegendNANA
12:00 27.8 20.0 63 0.0 LegendMM LegendMM   99.56 35   LegendNANA
13:00 29.0 18.3 53 0.0 LegendMM LegendMM   99.52 35   LegendNANA
14:00 30.1 17.5 47 0.0 LegendMM LegendMM   99.45 36   LegendNANA
15:00 30.7 17.4 45 0.0 LegendMM LegendMM   99.37 36   LegendNANA
16:00 29.8 18.3 50 0.0 LegendMM LegendMM   99.35 36   LegendNANA
17:00 27.8 19.6 61 0.0 LegendMM LegendMM   99.26 35   LegendNANA
18:00 25.8 20.5 73 0.0 LegendMM LegendMM   99.26 34   LegendNANA
19:00 25.3 21.0 77 0.0 LegendMM LegendMM   99.20 34   LegendNANA
20:00 25.3 20.9 76 0.0 LegendMM LegendMM   99.17 34   LegendNANA
21:00 25.9 20.4 71 0.0 LegendMM LegendMM   99.09 34   LegendNANA
22:00 26.4 20.5 70 0.0 LegendMM LegendMM   99.00 34   LegendNANA
23:00 26.7 19.7 66 0.0 LegendMM LegendMM   98.96 34   LegendNANA

Notes on Data Quality.

Legend

  • E = Estimated
  • M = Missing
  • NA = Not Available*
  • [empty] = Indicates an unobserved value
Date modified: